TimeMST,TemperatureF,Dew PointF,Humidity,Sea Level PressureIn,VisibilityMPH,Wind Direction,Wind SpeedMPH,Gust SpeedMPH,PrecipitationIn,Events,Conditions,WindDirDegrees,DateUTC
12:54 AM,30.9,6.1,35,30.01,10.0,Calm,Calm,-,N/A,,Clear,0,2012-11-02 07:54:00
1:54 AM,30.0,7.0,38,30.01,10.0,Calm,Calm,-,N/A,,Clear,0,2012-11-02 08:54:00
2:54 AM,30.9,8.1,38,30.01,10.0,Calm,Calm,-,N/A,,Clear,0,2012-11-02 09:54:00
3:54 AM,30.9,9.0,40,30.01,10.0,Calm,Calm,-,N/A,,Clear,0,2012-11-02 10:54:00
4:54 AM,28.0,8.1,43,30.04,10.0,Calm,Calm,-,N/A,,Clear,0,2012-11-02 11:54:00
5:54 AM,28.0,9.0,45,30.06,10.0,Calm,Calm,-,N/A,,Clear,0,2012-11-02 12:54:00
6:54 AM,26.1,9.0,49,30.13,10.0,Calm,Calm,-,N/A,,Clear,0,2012-11-02 13:54:00
7:54 AM,34.0,10.9,38,30.14,10.0,Calm,Calm,-,N/A,,Clear,0,2012-11-02 14:54:00
8:54 AM,53.1,14.0,21,30.07,10.0,Calm,Calm,-,N/A,,Clear,0,2012-11-02 15:54:00
9:54 AM,57.0,15.1,19,30.07,10.0,SSW,4.6,-,N/A,,Clear,200,2012-11-02 16:54:00
10:54 AM,59.0,12.9,16,30.07,10.0,South,6.9,-,N/A,,Clear,170,2012-11-02 17:54:00
11:54 AM,61.0,12.9,15,30.05,10.0,WSW,8.1,17.3,N/A,,Clear,240,2012-11-02 18:54:00
12:54 PM,61.0,15.1,17,30.02,10.0,SW,3.5,-,N/A,,Clear,220,2012-11-02 19:54:00
1:54 PM,63.0,10.0,13,30.00,10.0,West,9.2,-,N/A,,Clear,260,2012-11-02 20:54:00
2:54 PM,62.1,8.1,12,29.99,10.0,WSW,6.9,-,N/A,,Clear,250,2012-11-02 21:54:00
3:54 PM,61.0,9.0,13,30.00,10.0,SSW,6.9,-,N/A,,Clear,210,2012-11-02 22:54:00
4:54 PM,60.1,9.0,13,30.02,10.0,West,3.5,-,N/A,,Clear,280,2012-11-02 23:54:00
5:54 PM,42.1,6.1,23,30.10,10.0,Calm,Calm,-,N/A,,Clear,0,2012-11-03 00:54:00
6:54 PM,34.0,5.0,30,30.17,10.0,Calm,Calm,-,N/A,,Clear,0,2012-11-03 01:54:00
7:54 PM,32.0,7.0,35,30.15,10.0,Calm,Calm,-,N/A,,Clear,0,2012-11-03 02:54:00
8:54 PM,28.9,5.0,36,30.09,10.0,Calm,Calm,-,N/A,,Clear,0,2012-11-03 03:54:00
9:54 PM,28.9,8.1,41,30.09,10.0,Calm,Calm,-,N/A,,Clear,0,2012-11-03 04:54:00
10:54 PM,28.0,9.0,45,30.09,10.0,Calm,Calm,-,N/A,,Clear,0,2012-11-03 05:54:00
11:54 PM,26.1,10.0,51,30.09,10.0,Calm,Calm,-,N/A,,Clear,0,2012-11-03 06:54:00